World > North America > United States > Ohio

North Olmsted, Ohio Regional Weather

Lat: 41.41N, Lon: 81.92W
Wx Zone: OHZ011Web Search

If you are on your PC, you can easily pass this page to your phone by scanning the QR Code near the bottom with your camera.

Feedback


°F Click to change North Olmsted hourly weather to Imperial units.Click to change North Olmsted hourly weather to Metric units. °C
North Olmsted Weather Map
UTC Time: 5/16/2021, 15:17
Your Time:

North Olmsted, OH Regional Weather

Expires:202105161600;;207464
ASUS41 KCLE 161500
RWRCLE
OHIO REGIONAL WEATHER ROUNDUP
NATIONAL WEATHER SERVICE WILMINGTON, OH
1100 AM EDT SUN MAY 16 2021

NOTE: "FAIR" INDICATES FEW OR NO CLOUDS BELOW 12,000 FEET WITH NO
SIGNIFICANT WEATHER AND/OR OBSTRUCTIONS TO VISIBILITY.


OHZ009>014-019>023-028>033-038-089-161600-
   NORTHEAST OHIO
  
CITY           SKY/WX    TMP DP  RH WIND       PRES   REMARKS
CLE-HOPKINS    CLOUDY    64  41  42 S7        30.26S                  
CLE-LAKEFRONT  CLOUDY    62  48  60 N7        30.26S                  
CUY CO. ARPT   PTSUNNY   63  43  48 N7        30.27S                  
LORAIN-ELYRIA  CLOUDY    62  44  51 S3        30.27S                  
ASHTABULA      FAIR      64  38  38 VRB3      30.28S                  
AKRON-CANTON   PTSUNNY   66  40  38 N3        30.27F                  
WOOSTER        NOT AVBL                                               
MANSFIELD      FAIR      65  40  39 S10       30.27S                  
YOUNGSTOWN     PTSUNNY   66  38  35 VRB5      30.28F                  
$$
 

SKY/WX - Weather  TMP - Temperature  DP - Dew Point  RH - Relative Humidity
WIND - Wind Direction/Speed PRES - Barometric Pressure VSB - Visibility
WCI - Wind Chill Index E13G22 Wind - East Wind 13 mph/Gusts of 22 mph